Weather History for KHRI - March, 2014

Change the Weather History Date:

Saturday, March 15, 2014

  Actual Average Record
Temperature  
Mean Temperature 52 °F -  
Max Temperature 66 °F 56 °F 77 °F (1940)
Min Temperature 37 °F 34 °F 15 °F (1944)
Degree Days  
Heating Degree Days 14    
Growing Degree Days 2 (Base 50)    
Moisture  
Dew Point 36 °F    
Average Humidity 62    
Maximum Humidity 86    
Minimum Humidity 33    
Precipitation  
Precipitation 0.00 in - - ()
Sea Level Pressure  
Sea Level Pressure 30.29 in    
Wind  
Wind Speed 5 mph (South)    
Max Wind Speed 9 mph    
Max Gust Speed -    
Visibility 10 miles    
Events      
Averages and records for this station are not official NWS values.
T = Trace of Precipitation, MM = Missing Value Source: NWS Daily Summary

Daily Weather History Graph

Daily Weather History Graph

Search for Another Location

Airport or City:

Trip Planner

Search our weather history database for the weather conditions in past years. The results will help you decide how hot, cold, wet, or windy it might be!

Date:

Astronomy

Mar. 15, 2014 Rise Set
Actual Time 7:09 AM PDT 7:03 PM PDT
Civil Twilight 6:39 AM PDT 7:32 PM PDT
Nautical Twilight 6:05 AM PDT 8:07 PM PDT
Astronomical Twilight 5:29 AM PDT 8:42 PM PDT
Moon 6:26 PM PDT (3/15) 6:25 AM PDT (3/15)
Length of Visible Light 12h 52m
Length of Day
11h 53m
Waxing Gibbous, 99% of the Moon is Illuminated
Mar 15
Waxing Gibbous
Mar 16
Full
Mar 23
Last Quarter
Mar 30
New
Apr 7
First Quarter

Hourly Weather History & Observations

Time (PDT) Temp. Windchill Dew Point Humidity Pressure Visibility Wind Dir Wind Speed Gust Speed Precip Events Conditions
12:53 AM 39.9 °F 35.1 °F 34.0 °F 79% 30.31 in 10.0 mi SSE 6.9 mph - N/A   Clear
1:53 AM 39.9 °F 35.1 °F 33.1 °F 77% 30.32 in 10.0 mi SSE 6.9 mph - N/A   Clear
2:53 AM 39.0 °F 34.0 °F 32.0 °F 76% 30.33 in 10.0 mi SSE 6.9 mph - N/A   Clear
3:53 AM 39.0 °F 34.8 °F 32.0 °F 76% 30.32 in 10.0 mi South 5.8 mph - N/A   Clear
4:53 AM 39.9 °F 35.1 °F 33.1 °F 77% 30.33 in 10.0 mi South 6.9 mph - N/A   Clear
5:53 AM 37.9 °F 34.4 °F 32.0 °F 79% 30.34 in 10.0 mi SSE 4.6 mph - N/A   Clear
6:53 AM 37.9 °F 35.5 °F 34.0 °F 86% 30.34 in 10.0 mi SE 3.5 mph - N/A   Clear
7:53 AM 39.9 °F 37.8 °F 35.1 °F 83% 30.34 in 10.0 mi SE 3.5 mph - N/A   Mostly Cloudy
8:53 AM 46.0 °F - 36.0 °F 68% 30.34 in 10.0 mi Calm Calm - N/A   Scattered Clouds
9:53 AM 46.9 °F - 36.0 °F 66% 30.36 in 10.0 mi NW 4.6 mph - N/A   Overcast
10:53 AM 50.0 °F - 36.0 °F 59% 30.36 in 10.0 mi Calm Calm - N/A   Mostly Cloudy
11:53 AM 52.0 °F - 35.1 °F 53% 30.35 in 10.0 mi West 3.5 mph - N/A   Overcast
12:53 PM 57.0 °F - 37.0 °F 47% 30.33 in 10.0 mi NW 4.6 mph - N/A   Partly Cloudy
1:53 PM 60.1 °F - 34.0 °F 38% 30.29 in 10.0 mi Variable 3.5 mph - N/A   Clear
2:53 PM 62.1 °F - 37.0 °F 39% 30.27 in 10.0 mi Calm Calm - N/A   Clear
3:53 PM 64.9 °F - 36.0 °F 34% 30.24 in 10.0 mi Variable 3.5 mph - N/A   Clear
4:53 PM 66.0 °F - 36.0 °F 33% 30.22 in 10.0 mi West 3.5 mph - N/A   Clear
5:53 PM 64.0 °F - 36.0 °F 35% 30.20 in 10.0 mi Calm Calm - N/A   Clear
6:53 PM 59.0 °F - 37.9 °F 46% 30.20 in 10.0 mi ENE 5.8 mph - N/A   Clear
7:53 PM 52.0 °F - 37.9 °F 59% 30.20 in 10.0 mi SSE 3.5 mph - N/A   Clear
8:53 PM 46.9 °F - 37.9 °F 71% 30.22 in 10.0 mi Calm Calm - N/A   Clear
9:53 PM 45.0 °F 42.6 °F 37.9 °F 76% 30.23 in 10.0 mi South 4.6 mph - N/A   Clear
10:53 PM 50.0 °F - 39.0 °F 66% 30.23 in 10.0 mi South 9.2 mph - N/A   Clear
11:53 PM 52.0 °F - 39.0 °F 61% 30.23 in 10.0 mi South 8.1 mph - N/A   Clear